Location: ????????
(55.1591°N, 39.1782°E)
Time: 14:08:23
(UTC+00:00)

Cosmos 2333 Rocket - Pass Details

Date: 14 April 2024
Orbit: 839 x 862 km, 70.8° (Epoch: 23 May)

Event Time Altitude Azimuth Distance (km) Brightness Sun altitude
Exits shadow 00:04:58 26° 243° (WSW) 1,595 3.1 -17.1°
Maximum altitude 00:08:02 57° 311° (NW) 991 2.5 -16.8°
Drops below altitude 10° 00:13:37 10° 30° (NNE) 2,469 5.9 -16.2°
Sets 00:16:08 0° 35° (NE) 3,408 7.1 -16.0°
